Location: Emory University Observatory
(33.7903°N, 84.3267°W)
Time: 16:45:14
(UTC-05:00)

Vanguard 3 - All Passes

Search period start: 17 January 2018 00:00
Search period end: 27 January 2018 00:00
Orbit: 508 x 3264 km, 33.4° (Epoch: 17 January)

Date Brightness Start Highest point End Pass type
(mag) Time Alt. Az. Time Alt. Az. Time Alt. Az.
17 Jan - 01:06:42 10° SW 01:20:56 64° SSE 01:40:31 10° ENE visible
17 Jan - 03:19:51 10° W 03:37:52 87° S 03:57:26 10° E visible
17 Jan - 05:35:45 10° W 05:55:55 83° SSW 06:12:26 10° ESE visible
17 Jan - 07:53:25 10° WNW 08:11:46 52° SW 08:24:20 10° SE daylight
17 Jan - 10:15:31 10° W 10:23:55 17° SW 10:30:36 10° SSW daylight
17 Jan - 21:49:25 10° SE 21:53:41 12° SE 21:58:37 10° ESE night (unlit)
17 Jan - 23:53:32 10° SSW 00:05:21 47° SE 00:22:50 10° ENE visible
18 Jan - 02:04:51 10° WSW 02:20:36 80° SSE 02:40:53 10° E visible
18 Jan - 04:19:24 10° W 04:38:32 88° S 04:57:09 10° E visible
18 Jan - 06:35:58 10° WNW 06:55:52 68° SSW 07:10:51 10° SE visible
18 Jan - 08:55:00 10° W 09:09:52 32° SW 09:20:30 10° SSE daylight
18 Jan - 22:41:37 10° S 22:50:50 29° SE 23:04:10 10° E night (unlit)
19 Jan - 00:50:45 10° SW 01:04:07 67° SSE 01:23:40 10° ENE visible
19 Jan - 03:03:47 10° W 03:21:00 88° S 03:41:02 10° E visible
19 Jan - 05:19:14 10° W 05:39:03 80° SSW 05:56:22 10° ESE visible
19 Jan - 07:36:36 10° WNW 07:54:54 48° SW 08:08:15 10° SSE daylight
19 Jan - 09:59:46 10° W 10:07:16 15° SW 10:13:31 10° SSW daylight
19 Jan - 21:32:12 10° SSE 21:37:09 14° SE 21:43:13 10° E night (unlit)
19 Jan - 23:37:36 10° SW 23:48:39 50° SE 00:05:54 10° ENE visible
20 Jan - 01:48:58 10° WSW 02:03:50 83° SSE 02:24:10 10° E visible
20 Jan - 04:03:10 10° W 04:21:40 87° S 04:40:53 10° ESE visible
20 Jan - 06:19:18 10° WNW 06:38:56 64° SSW 06:54:45 10° SE visible
20 Jan - 08:38:24 10° W 08:53:01 29° SW 09:04:05 10° S daylight
20 Jan - 22:25:33 10° SSW 22:34:14 32° SE 22:47:27 10° E night (unlit)
21 Jan - 00:34:57 10° WSW 00:47:27 71° SSE 01:06:45 10° ENE visible
21 Jan - 02:47:49 10° W 03:04:12 89° S 03:24:30 10° E visible
21 Jan - 05:02:49 10° W 05:22:06 77° SSW 05:40:09 10° ESE visible
21 Jan - 07:19:54 10° WNW 07:37:57 45° SW 07:51:58 10° SSE daylight
21 Jan - 09:44:37 10° WSW 09:50:32 13° SW 09:55:47 10° SSW daylight
21 Jan - 21:15:30 10° SSE 21:20:42 16° SE 21:27:23 10° E night (unlit)
21 Jan - 23:21:49 10° SW 23:32:04 54° SSE 23:48:56 10° ENE visible
22 Jan - 01:33:11 10° WSW 01:47:09 85° S 02:07:23 10° E visible
22 Jan - 03:47:02 10° W 04:04:47 86° S 04:24:29 10° ESE visible
22 Jan - 06:02:44 10° WNW 06:21:55 60° SSW 06:38:27 10° SE visible
22 Jan - 08:22:00 10° W 08:36:06 26° SW 08:47:25 10° S daylight
22 Jan - 22:09:38 10° SSW 22:17:46 34° SE 22:30:40 10° E night (unlit)
23 Jan - 00:19:17 10° WSW 00:30:54 75° SSE 00:49:47 10° E visible
23 Jan - 02:31:57 10° W 02:47:28 89° S 03:07:52 10° E visible
23 Jan - 04:46:29 10° WNW 05:05:07 74° SSW 05:23:46 10° ESE visible
23 Jan - 07:03:20 10° W 07:20:54 41° SW 07:35:29 10° SSE visible
23 Jan - 09:31:08 10° WSW 09:33:47 10° SW 09:36:17 10° SW daylight
23 Jan - 20:59:08 10° SSE 21:04:21 17° SE 21:11:19 10° E visible
23 Jan - 23:06:09 10° SW 23:15:40 58° SSE 23:31:55 10° ENE night (unlit)
24 Jan - 01:17:30 10° W 01:30:36 87° S 01:50:32 10° E visible
24 Jan - 03:31:00 10° W 03:47:54 83° SSW 04:07:57 10° ESE visible
24 Jan - 05:46:17 10° WNW 06:04:50 56° SSW 06:21:58 10° SE visible
24 Jan - 08:05:51 10° W 08:19:09 23° SW 08:30:26 10° S daylight
24 Jan - 21:53:52 10° SSW 22:01:26 37° SE 22:13:51 10° E visible
25 Jan - 00:03:43 10° WSW 00:14:30 78° SSE 00:32:46 10° E visible
25 Jan - 02:16:10 10° W 02:30:47 88° S 02:51:08 10° E visible
25 Jan - 04:30:17 10° WNW 04:48:06 70° SSW 05:07:13 10° SE visible
25 Jan - 06:46:57 10° W 07:03:49 37° SW 07:18:45 10° SSE visible
25 Jan - 20:43:01 10° S 20:48:05 19° SE 20:55:09 10° E visible
25 Jan - 22:50:35 10° SW 22:59:23 61° SSE 23:14:54 10° ENE night (unlit)
26 Jan - 01:01:55 10° W 01:14:08 88° S 01:33:36 10° E visible
26 Jan - 03:15:03 10° W 03:31:04 80° SSW 03:51:16 10° ESE visible
26 Jan - 05:30:00 10° WNW 05:47:45 51° SSW 06:05:17 10° SE visible
26 Jan - 07:50:02 10° W 08:02:11 20° SW 08:13:03 10° S daylight
26 Jan - 21:38:14 10° SSW 21:45:14 40° SE 21:57:04 10° E visible
